User: anonymous   Login
Location: Allos
(44.2333°N, 6.6333°E)
Time: 15:51:16
(UTC+00:00)
Language:

Cosmos 773 Rocket - Orbit

View from above orbital plane
View from above orbital plane
View from above satellite
View from above satellite

Ground track
Ground track

The orbit data is extracted from the following two-line orbital elements,

1  8344U 75094B   21059.52826935  .00000060  00000-0  27768-4 0  9991
2  8344  74.0577 153.5274 0020675  74.9524 285.3916 14.39173437380220
Epoch (UTC): 28 February 2021 12:40:42
Eccentricity: 0.0020675
inclination: 74.0577°
perigee height: 746 km
apogee height: 776 km
right ascension of ascending node: 153.5274°
argument of perigee: 74.9524°
revolutions per day: 14.39173437
mean anomaly at epoch: 285.3916°
orbit number at epoch: 38022

The dashed part of the orbit path shows where the satellite is in the earth's shadow,  

DLR